User: anonymous   Login
Location: Unspecified
(0.0000°N, 0.0000°E)
Time: 00:09:13
(UTC+00:00)
Language:

POLYITAN 1 - Orbit

View from above orbital plane
View from above orbital plane
View from above satellite
View from above satellite

Ground track
Ground track

The orbit data is extracted from the following two-line orbital elements,

1 40042U 14033AJ  17264.74479485  .00000409  00000-0  50473-4 0  9995
2 40042  97.9135 175.6741 0014442 342.1626  17.9081 14.88141309176780
Epoch (UTC): 21 September 2017 17:52:30
Eccentricity: 0.0014442
inclination: 97.9135°
perigee height: 593 km
apogee height: 614 km
right ascension of ascending node: 175.6741°
argument of perigee: 342.1626°
revolutions per day: 14.88141309
mean anomaly at epoch: 17.9081°
orbit number at epoch: 17678

The dashed part of the orbit path shows where the satellite is in the earth's shadow,  

DLR